Weather Roundup
Issued by NWS Chicago, IL

Home | Current Version | Previous Version | Graphics & Text | Print | Product List | Glossary On
Versions: 1 2 3 4 5 6 7 8 9 10 11 12 13 14 15 16 17 18 19 20 21 22 23 24 25 26 27 28 29 30 31 32 33 34 35 36 37 38 39 40 41 42 43 44 45 46 47 48 49 50
000
NZUS59 KLOT 181704
HRRLOT

CHICAGO AREA WEATHER ROUNDUP
NATIONAL WEATHER SERVICE CHICAGO/ROMEOVILLE IL
1200 PM CDT FRI AUG 18 2017

NOTE: "FAIR" INDICATES FEW OR NO CLOUDS BELOW 12,000 FEET WITH NO
SIGNIFICANT WEATHER AND/OR OBSTRUCTIONS TO VISIBILITY.

* THESE STATIONS ARE NOT UNDER NWS QUALITY CONTROL. THEY ALSO MAY NOT
  REPORT WEATHER SUCH AS PRECIPITATION OR FOG.

ILZ005-006-012>014-019>023-181800-
NORTHEAST ILLINOIS

CITY           SKY/WX    TMP DP  RH WIND       PRES   REMARKS
OHARE          PTSUNNY   75  59  57 NW16      29.88S
MIDWAY         PTSUNNY   75  61  61 NW8       29.88S
AURORA         MOSUNNY   76  64  66 W9        29.90R
LANSING*       PTSUNNY   77  59  53 W10G18    29.89S
JOLIET*        CLOUDY    77  64  63 W10       29.90S
WAUKEGAN       MOSUNNY   72  60  66 W9        29.86S
DUPAGE AIRPORT PTSUNNY   74  64  71 W10G17    29.89R
WHEELING       CLOUDY    74  63  68 W9        29.89R
MORRIS*        PTSUNNY   76  63  64 W12       29.90S
NORTHERLY ISL    N/A     74  58  57 NW12        N/A
$$

WIZ051-052-058>065-066-070>072-181800-
SOUTHEAST WISCONSIN

CITY           SKY/WX    TMP DP  RH WIND       PRES   REMARKS
MILWAUKEE      PTSUNNY   72  59  63 W13       29.85R
KENOSHA*       CLOUDY    72  60  66 NW12      29.87R
RACINE*        CLOUDY    71  60  68 W10G20    29.87R
WAUKESHA       CLOUDY    68  57  68 NW9G15    29.87R
$$

INZ001>003-010>013-019-020-181800-
NORTHWEST INDIANA

CITY           SKY/WX    TMP DP  RH WIND       PRES   REMARKS
GARY*          PTSUNNY   77  59  53 W14       29.89S
MICHIGAN CITY* NOT AVBL
RENSSELAER*    NOT AVBL
VALPARAISO     PTSUNNY   77  63  61 W13       29.89F
$$

LMZ740>746-181800-
SOUTHERN LAKE MICHIGAN

STATION/POSITION TIME  SKY/WX   TEMP WIND        PRES    VSBY
                                AIR  DIR/SP/G
                 (UTC)          (F)  (DEG/KT/KT) (MB)    (MI)
HARRISON CRIB    1610            72  300/ 13/ 17   N/A
BURNHAM HARBOR   NOT AVBL
CALUMET HARBOR   1630            75  280/  6/ 11 1011.1F
BURNS HARBOR     1640            72  290/  5/  8 1012.5S
MICHIGAN CITY    1640            70  270/ 10/ 11   N/A
$$

ABBREVIATIONS USED IN REMARKS
   TC - TEMPERATURE IN CELSIUS
  WCI - WIND CHILL INDEX
   HX - HEAT INDEX
  VSB - VISIBILITY
$$




USA.gov is the U.S. government's official web portal to all federal, state and local government web resources and services.